Cloud_Cover
97 100 100 100 100 59 100 38 69 50 84 13 15 0 0 0 0 0 0 4 6 65 100 100 100 100 98 100 100 88 100 100 100 100 100 100 100 100 100 91 100 100 100 87 96 89 100 38 58
93 100 100 100 100 73 100 100 5 65 93 100 3 0 0 0 0 0 0 0 5 42 100 100 100 100 100 100 99 100 100 93 92 100 100 91 100 100 100 100 97 28 49 100 80 100 92 46 58
99 91 100 99 100 89 80 100 5 43 36 53 0 0 0 0 0 0 0 1 1 5 4 54 100 100 100 100 100 98 100 81 85 96 100 100 92 100 100 100 100 9 6 8 99 100 46 36 92
6 42 34 99 100 99 92 100 10 92 100 100 17 4 0 0 0 0 0 0 4 3 20 5 100 100 100 100 100 60 100 100 98 97 84 100 100 100 100 98 100 90 100 100 89 100 46 96 100
5 40 79 73 100 100 99 92 99 96 85 91 97 68 3 0 0 0 0 0 0 4 25 5 5 7 56 5 94 99 94 90 100 100 100 92 100 87 100 98 28 76 69 100 100 100 100 86 100
95 34 91 89 100 100 100 100 82 82 99 90 73 99 63 5 25 2 0 0 2 4 89 9 5 5 5 5 5 52 100 98 96 100 100 100 97 100 100 10 93 28 49 100 100 41 5 80 52
100 89 100 83 99 100 98 98 79 100 100 20 89 79 100 97 53 18 0 0 0 2 28 99 31 5 5 1 17 30 100 100 93 100 100 100 100 100 58 9 82 79 94 18 14 5 6 28 5
90 50 94 100 100 100 98 91 100 100 100 95 100 96 71 100 99 26 1 0 0 3 24 32 25 4 5 4 15 5 5 19 100 100 100 100 100 100 100 100 26 98 100 88 5 5 7 5 50
0 66 38 56 100 64 98 92 86 100 100 100 93 84 84 100 89 18 0 1 8 32 43 49 26 0 0 0 66 98 63 27 100 100 100 100 71 96 100 100 92 99 84 26 8 5 10 23 8
0 0 0 17 9 48 15 95 100 36 4 92 95 64 60 100 65 13 0 18 50 46 42 38 39 39 7 3 0 44 97 91 87 100 100 100 100 64 26 64 100 100 100 38 7 15 72 57 46
0 0 0 0 0 0 1 5 2 3 0 2 69 96 20 100 100 83 2 0 7 2 25 90 98 65 45 31 15 2 5 8 0 87 100 100 100 100 99 91 84 100 100 100 97 100 78 33 40
0 0 0 0 0 0 0 0 5 5 3 1 5 5 23 95 100 93 97 0 0 0 0 34 99 98 62 33 31 10 54 50 31 15 72 100 100 100 100 100 100 98 100 100 100 60 94 23 5
0 0 0 0 0 0 0 0 0 1 5 2 6 71 84 89 100 100 100 100 0 0 0 0 9 90 100 15 38 45 90 100 97 22 97 100 100 100 100 100 95 34 100 61 84 32 55 32 5
0 0 0 0 0 0 0 0 0 0 2 0 0 1 58 100 71 83 76 58 1 0 0 0 0 2 99 100 94 70 76 100 100 100 67 14 23 70 100 77 29 60 52 100 100 100 28 52 6
0 0 0 0 0 0 0 0 0 0 0 0 0 0 0 97 100 96 43 94 49 0 0 0 0 4 4 88 100 100 100 100 100 100 98 65 50 39 91 71 80 12 52 65 23 80 14 10 5
0 0 0 0 0 0 0 0 0 0 0 0 0 0 0 4 97 48 74 97 93 7 1 0 0 0 3 6 98 100 100 100 100 98 100 99 91 79 5 16 54 100 99 25 44 6 3 2 0
0 0 0 0 0 0 0 0 0 0 0 0 0 0 0 0 1 3 8 84 100 65 6 5 0 0 0 5 22 96 100 100 100 100 100 100 93 59 14 8 6 12 28 23 21 29 0 0 0
0 0 0 0 0 0 0 0 0 0 0 0 0 0 0 0 3 85 100 61 91 100 5 5 5 0 0 1 4 12 53 88 100 100 100 100 100 94 42 5 5 7 16 25 62 18 20 0 5
0 0 0 0 0 0 0 0 0 0 0 0 0 0 0 0 25 92 99 100 95 91 52 19 5 5 2 0 1 0 0 6 50 100 100 100 81 41 32 5 7 6 5 37 100 9 2 13 5
0 0 0 0 0 0 0 0 0 0 0 0 0 0 4 0 0 0 36 42 100 94 99 19 6 9 5 12 15 5 3 0 10 58 21 4 4 5 5 68 10 26 8 8 18 5 9 6 25
0 0 0 0 0 0 0 0 0 0 0 0 0 0 3 97 84 27 0 1 11 46 88 6 55 93 72 64 15 5 5 5 8 62 100 29 1 4 4 5 5 12 23 5 5 33 10 42 63
0 0 0 0 0 0 0 0 0 0 0 0 0 0 0 80 98 94 10 5 5 13 8 20 47 34 60 96 50 58 7 70 5 9 42 5 84 3 0 5 5 5 28 48 85 100 100 100 100
0 0 0 0 0 0 0 0 0 0 0 0 0 0 1 100 11 80 90 2 0 15 5 0 4 0 40 96 95 65 50 80 5 5 0 4 24 85 5 1 5 5 44 96 76 98 100 99 100
0 0 0 0 0 0 0 0 0 0 0 0 0 0 2 89 77 30 76 100 94 15 9 0 0 0 21 71 100 30 100 100 93 16 2 5 5 64 98 87 5 5 17 84 100 97 100 100 100
0 0 0 0 0 0 0 0 0 0 0 0 0 0 0 0 0 30 20 0 92 100 24 4 3 0 2 5 40 67 94 70 100 100 5 0 2 9 31 94 84 80 64 100 100 100 100 95 89
0 0 0 0 0 0 0 0 0 0 0 0 0 0 0 0 8 71 88 6 5 10 31 6 0 0 5 5 5 99 5 100 32 96 64 4 0 1 5 100 100 100 100 100 100 100 100 100 100
0 0 0 0 0 0 0 0 0 3 5 0 2 4 0 3 11 29 77 89 100 11 1 5 1 0 0 5 1 30 79 5 88 100 87 39 1 0 1 13 48 98 100 100 100 100 100 100 100
0 0 0 0 0 0 0 0 0 0 0 0 0 0 0 0 4 100 100 100 54 70 2 4 3 0 1 5 69 5 86 6 3 29 6 5 1 0 0 23 0 16 91 100 100 87 95 100 100
0 0 0 0 0 0 0 0 0 0 0 0 0 0 0 1 32 82 100 100 5 4 4 83 99 93 2 0 35 1 100 95 4 0 0 4 2 0 0 0 1 14 62 100 100 100 100 100 100
0 0 0 0 0 0 0 0 0 0 0 0 0 0 0 39 2 97 100 88 100 3 0 17 100 100 100 3 0 0 57 41 38 46 5 0 4 19 100 98 38 5 8 99 100 100 100 100 100